This demonstration page uses our WeatherBlox Daily Observations layout. Learn more.

Left ArrowRight Arrow

Hourly Observations for October 29, 2021

Temp ( °F °C ) Dew Point ( °F °C ) Humidity (%) Winds ( mph kmh ) Pressure ( in mb ) Visibility ( mi km ) Precip ( " mm )
12:53 am 00:53 Clear 55 12.8 53 11.7 93 93 N N/A 30.02 1017 10 16 N/A
1:53 am 01:53 Clear 54 12.2 52 11.1 93 93 N N/A 30.01 1016 10 16 N/A
2:53 am 02:53 Clear 53 11.7 51 10.6 93 93 N N/A 29.99 1016 10 16 N/A
3:53 am 03:53 Clear 52 11.1 50 10 93 93 N N/A 29.98 1015 10 16 N/A
4:53 am 04:53 Clear 52 11.1 50 10 93 93 N N/A 29.98 1015 10 16 N/A
5:53 am 05:53 Clear 51 10.6 49 9.4 92 92 N N/A 29.98 1015 10 16 N/A
6:53 am 06:53 Clear 50 10 48 8.9 93 93 N N/A 29.98 1015 10 16 N/A
7:53 am 07:53 Sunny 50 10 47 8.3 89 89 N N/A 29.99 1016 10 16 N/A
8:53 am 08:53 Sunny 55 12.8 52 11.1 90 90 N N/A 30.00 1016 10 16 N/A
9:53 am 09:53 Sunny 61 16.1 53 11.7 75 75 NNE 3 6 30.00 1016 10 16 N/A
10:53 am 10:53 Sunny 66 18.9 53 11.7 63 63 N N/A 29.99 1016 10 16 N/A
11:53 am 11:53 Sunny 68 20 53 11.7 59 59 N N/A 29.98 1015 10 16 N/A
12:53 pm 12:53 Sunny 71 21.7 55 12.8 57 57 VRB 3 6 29.96 1014 10 16 N/A
1:53 pm 13:53 Sunny 72 22.2 55 12.8 55 55 N N/A 29.93 1014 10 16 N/A
2:53 pm 14:53 Sunny 72 22.2 54 12.2 53 53 N N/A 29.91 1013 10 16 N/A
3:53 pm 15:53 Sunny 73 22.8 54 12.2 51 51 N 3 6 29.89 1012 10 16 N/A
4:53 pm 16:53 Sunny 71 21.7 56 13.3 59 59 ESE 3 6 29.88 1012 10 16 N/A
5:53 pm 17:53 Sunny 70 21.1 57 13.9 64 64 N N/A 29.87 1012 10 16 N/A
6:53 pm 18:53 Clear 66 18.9 57 13.9 73 73 N N/A 29.86 1011 10 16 N/A
7:53 pm 19:53 Clear 63 17.2 57 13.9 81 81 W 3 6 29.87 1011 10 16 N/A
8:53 pm 20:53 Clear 63 17.2 57 13.9 81 81 NNE 3 6 29.86 1011 10 16 N/A
9:53 pm 21:53 Clear 59 15 55 12.8 87 87 WNW 3 6 29.87 1012 10 16 N/A
10:53 pm 22:53 Partly Cloudy 59 15 56 13.3 90 90 N N/A 29.87 1012 10 16 N/A
11:53 pm 23:53 Mostly Cloudy 58 14.4 55 12.8 90 90 N N/A 29.87 1012 10 16 N/A

Powered by AerisWeather